Wind_Speed
17 15 12 11 10 10 9 10 11 12 13 15 16 17 18 19 21 18 2 10 6 1 5 3 2 1 4 3 2 5 2 4 4 4 2 1 1 2 1 2 1 3 4 2 3 4 5 3 5 3 5 1 3 3
17 15 13 11 10 10 10 10 10 11 12 13 15 16 17 17 19 19 4 9 12 4 5 11 23 23 14 14 2 3 2 1 1 3 2 2 2 3 1 2 3 1 4 3 5 5 3 4 4 2 3 4 4 4
17 15 14 13 11 11 11 10 10 11 11 12 14 15 15 15 16 17 13 12 6 3 5 4 3 6 7 15 10 2 2 3 2 3 3 2 4 2 1 2 3 4 2 3 3 4 3 6 6 5 4 2 3 3
18 16 15 14 13 13 12 11 11 11 11 12 14 15 14 15 16 16 13 8 3 0 1 5 10 4 6 5 5 2 4 3 3 2 2 2 1 1 2 2 2 3 3 3 1 4 4 3 3 3 3 4 6 6
18 16 15 15 15 14 13 12 11 11 11 12 13 14 14 15 17 15 4 2 3 0 2 5 20 4 5 6 6 3 5 3 2 2 2 1 1 2 1 2 2 1 2 2 3 5 3 2 4 5 1 1 5 5
18 16 15 15 14 13 13 12 11 10 11 12 13 14 13 14 16 6 3 3 6 5 1 3 6 5 1 5 4 5 4 3 3 2 2 2 3 3 2 0 4 2 2 5 4 3 2 3 5 4 2 5 4 6
17 15 15 15 14 13 12 11 10 10 11 12 13 13 13 12 13 3 4 1 6 13 1 4 5 4 0 3 2 2 3 1 3 1 1 1 2 3 2 3 5 3 3 2 6 7 5 1 3 4 6 8 7 5
14 13 13 15 15 13 12 10 10 9 10 12 13 14 14 12 9 7 1 3 5 1 1 1 4 3 4 1 2 1 2 2 2 2 1 2 2 2 2 6 4 5 5 5 5 4 7 5 4 4 6 4 3 3
16 14 12 14 14 13 12 10 9 9 9 12 13 13 4 1 2 2 2 4 2 1 1 1 2 3 4 2 1 3 2 1 1 1 2 3 1 2 6 6 4 4 6 8 6 7 7 8 6 6 4 3 1 2
20 19 16 15 14 12 11 10 8 7 9 11 7 2 3 1 3 3 1 3 3 2 1 3 1 3 3 2 1 1 2 1 1 4 2 2 3 4 3 6 7 6 6 7 7 6 4 5 6 3 3 2 3 4
24 21 19 18 15 13 11 10 7 6 6 1 3 2 6 4 1 2 1 1 0 2 3 4 5 2 1 2 2 1 2 0 1 3 3 0 3 4 8 6 6 7 10 8 9 7 7 5 5 6 5 7 5 4
23 23 21 19 16 14 12 10 7 4 1 3 7 7 4 2 2 0 2 3 3 4 3 4 5 4 1 3 2 1 2 2 4 1 1 2 2 3 4 7 8 10 12 10 13 8 8 9 7 6 4 6 7 7
24 22 22 21 17 16 13 11 8 5 5 2 1 2 2 1 3 3 4 3 3 3 2 2 1 3 2 2 2 2 2 4 1 2 1 2 1 4 3 2 5 11 12 10 9 10 6 2 2 3 5 7 9 11
20 21 21 22 19 17 13 11 8 4 1 1 2 3 4 3 4 4 4 3 4 2 1 2 2 2 0 2 2 2 3 1 1 1 1 1 2 2 3 2 4 4 5 6 7 9 10 9 7 6 6 6 8 10
21 21 20 23 19 16 14 11 7 5 1 2 2 3 5 5 3 4 4 3 2 2 1 1 3 3 2 2 0 2 2 2 1 1 2 2 2 3 4 6 6 6 5 6 9 8 11 13 12 14 14 12 13 14
20 16 17 24 20 17 14 10 7 2 2 2 3 3 3 1 3 2 2 1 2 2 0 1 3 2 1 2 2 3 1 2 2 2 2 2 2 3 4 5 7 10 11 12 13 14 14 14 15 16 14 12 14 14
19 5 21 25 21 17 14 6 5 2 3 3 3 4 3 4 4 2 1 2 1 1 1 2 2 2 1 0 2 2 2 2 2 2 2 2 3 5 6 9 11 12 13 15 15 14 12 12 12 10 8 12 9 9
10 25 27 25 23 16 6 3 2 3 4 4 2 4 2 2 2 2 2 2 1 2 2 1 3 2 1 0 2 2 1 1 2 1 3 4 6 10 11 11 14 15 14 14 13 13 10 12 10 9 4 2 1 3
23 28 26 24 20 6 5 4 4 3 5 2 3 3 2 2 1 4 2 3 1 1 4 2 3 1 2 2 2 0 1 1 2 3 3 10 9 11 14 13 12 11 11 9 4 3 4 6 6 3 4 1 2 0
26 26 24 22 6 2 2 3 5 2 3 3 2 1 1 1 1 1 3 4 3 2 4 2 2 2 3 2 3 3 2 1 1 4 4 4 8 12 10 10 7 4 7 7 10 9 10 11 11 9 8 6 5 1
21 15 19 8 3 4 2 1 2 3 2 1 1 1 1 2 3 4 4 4 4 1 1 2 2 1 3 3 3 3 4 3 2 3 3 3 9 8 6 8 7 7 7 7 7 9 9 9 10 10 10 10 10 11
8 16 6 7 3 3 2 5 3 2 1 2 1 1 3 2 2 3 3 3 1 2 2 2 2 2 3 4 5 6 6 6 9 10 10 8 2 2 3 6 5 6 8 9 7 8 10 11 13 15 15 14 15 16
16 5 3 5 2 1 3 5 1 2 1 3 2 3 3 2 1 3 1 2 3 3 4 4 5 6 7 7 5 6 5 7 6 3 1 1 4 5 6 6 5 6 7 9 9 12 13 13 15 17 17 18 18 17
6 3 3 3 4 3 1 2 2 3 3 3 2 2 2 2 2 2 2 3 3 2 2 4 4 2 3 4 2 3 3 1 3 5 6 8 7 8 9 11 11 10 9 11 12 13 15 16 15 16 17 19 19 15
1 4 3 4 2 2 2 3 3 3 2 2 1 0 1 0 1 1 2 2 2 2 2 4 5 3 1 1 1 1 2 3 3 3 8 9 12 12 14 12 11 10 9 11 11 11 11 12 12 11 9 8 7 7
2 2 2 2 3 2 1 2 1 2 2 2 1 2 1 0 2 4 2 2 2 2 2 3 3 2 2 2 1 2 2 3 4 6 5 6 11 15 9 5 2 3 4 3 3 4 5 6 5 7 10 9 6 5
1 2 1 1 1 1 2 2 2 1 2 2 2 2 1 2 3 3 2 3 2 2 2 2 4 4 3 5 5 4 4 2 2 3 3 2 8 8 6 4 7 6 5 6 6 7 6 3 5 5 4 6 10 13
2 1 2 1 2 1 1 2 2 3 2 3 3 3 2 3 3 1 2 2 2 3 6 8 7 7 6 5 5 5 4 6 8 9 6 7 9 9 11 9 5 3 2 3 1 4 6 10 8 6 7 11 13 14
1 1 1 2 1 2 3 3 2 3 2 3 2 3 2 2 1 0 0 3 5 6 8 5 3 4 5 5 5 6 7 6 2 1 3 2 1 4 7 8 8 8 9 9 8 4 3 7 13 10 11 11 11 11
2 3 2 2 2 3 3 4 2 1 1 3 2 1 1 1 2 2 4 2 1 2 2 3 7 10 12 12 13 11 9 7 11 13 7 6 12 11 12 10 8 6 4 4 5 8 8 6 6 7 6 7 10 9
4 4 3 3 1 0 2 1 2 3 1 2 3 3 2 1 4 3 6 7 6 5 7 10 12 12 14 14 9 6 6 6 13 21 16 9 9 10 12 12 11 9 7 6 6 2 3 3 3 6 8 7 8 10
4 4 1 2 3 3 2 2 1 2 2 1 2 3 2 3 2 3 9 15 15 15 18 15 16 17 12 8 12 7 7 9 10 13 15 14 13 10 10 8 8 7 5 4 7 5 6 5 5 7 7 7 7 6
4 5 5 3 1 2 2 3 2 2 3 2 2 4 3 3 4 5 4 14 20 20 16 14 14 10 8 15 20 19 17 17 16 15 13 12 11 9 8 7 5 3 4 6 7 8 9 9 8 8 7 5 4 3
Wind_Direction
225 232 241 256 270 282 295 314 328 333 341 348 352 354 357 359 2 4 348 26 18 243 282 266 284 58 349 28 33 297 346 350 26 64 108 200 141 266 346 259 6 151 133 190 95 101 267 32 290 165 205 10 145 190
223 229 238 249 262 274 282 295 315 323 328 339 347 349 352 355 358 3 322 347 335 196 249 288 280 273 239 242 181 359 135 207 160 86 59 106 27 20 80 275 334 76 159 195 167 212 289 312 314 315 185 144 182 219
221 228 237 247 256 264 271 281 300 311 317 330 339 343 346 349 353 356 333 342 345 14 304 332 313 340 214 229 243 107 304 235 44 170 159 157 74 116 57 282 329 1 80 94 113 295 309 326 346 352 30 143 233 166
225 230 239 248 252 255 261 269 285 297 307 319 331 336 340 341 342 341 330 318 333 325 38 282 336 306 301 208 221 206 163 58 88 59 73 85 101 130 199 216 178 229 7 127 51 298 314 294 321 345 345 1 47 54
231 233 239 245 245 249 251 259 275 287 301 310 321 329 334 337 334 335 310 90 6 53 241 281 312 328 201 175 122 137 108 82 43 29 61 235 263 47 14 89 335 274 199 131 199 234 196 227 289 320 57 94 117 131
231 234 232 236 236 237 239 254 267 279 295 303 314 323 328 334 335 342 24 165 54 16 41 323 311 298 156 135 108 87 105 93 86 129 232 275 255 108 85 189 266 292 260 174 148 173 182 133 279 292 139 136 124 132
228 224 226 230 229 226 236 251 261 276 292 299 309 316 320 323 320 262 232 152 295 331 59 318 323 287 54 72 30 58 51 83 110 140 251 224 293 79 105 180 239 249 274 62 125 118 70 285 263 22 71 74 91 81
213 214 219 221 219 223 233 247 257 274 292 300 309 312 309 302 289 290 72 357 249 225 93 285 276 354 15 17 356 13 77 27 346 196 36 180 350 52 230 246 271 224 122 100 113 82 125 128 71 97 102 111 126 150
212 212 214 213 213 220 230 245 251 273 291 304 310 312 306 243 232 331 281 312 232 194 218 176 221 233 354 12 312 21 63 63 319 206 242 104 8 226 230 229 233 221 189 165 131 110 104 85 68 57 83 99 169 237
220 218 213 212 213 216 230 229 239 273 295 305 317 332 336 335 320 301 295 12 356 329 60 230 236 261 86 28 6 72 28 182 255 249 101 125 233 284 289 277 279 276 198 161 134 124 90 86 100 83 32 322 301 269
213 213 216 213 213 216 216 214 232 275 291 315 340 277 324 315 259 30 305 189 218 266 197 235 193 197 278 119 189 190 162 283 16 276 145 37 11 335 346 17 32 56 70 76 82 64 66 101 88 87 67 41 355 314
212 209 208 209 210 208 203 204 214 240 269 350 302 299 304 17 42 80 244 294 205 235 210 186 212 188 224 100 103 352 126 44 248 295 90 117 265 314 1 41 40 47 58 60 67 69 68 69 57 52 24 14 18 1
200 201 203 199 202 200 195 197 208 239 285 293 326 317 70 264 44 206 210 247 257 233 213 197 132 134 73 63 63 78 84 239 355 39 78 180 275 314 320 17 51 46 43 35 27 22 15 23 16 33 349 351 336 330
189 189 189 190 191 190 189 187 195 204 264 223 212 305 173 250 239 202 209 228 259 272 247 114 81 116 83 117 137 134 233 76 67 319 151 177 188 256 324 13 63 1 1 332 321 324 312 305 298 292 289 298 306 301
179 180 180 183 182 178 175 175 184 190 242 255 229 230 228 232 249 241 228 281 238 242 140 57 46 81 14 110 111 95 181 230 244 148 136 207 245 291 313 350 347 330 318 307 303 299 298 294 285 284 280 279 277 280
165 157 174 174 168 165 163 166 170 188 257 234 241 270 259 266 293 274 210 280 290 340 26 70 97 67 249 162 150 225 248 130 211 207 211 206 241 279 305 304 298 296 293 294 294 292 289 284 279 285 295 281 268 260
160 124 167 159 156 157 158 150 178 209 245 240 253 234 235 251 248 253 241 239 344 102 100 90 87 167 51 319 100 21 168 191 169 177 220 241 269 285 287 293 296 298 294 295 294 290 282 293 296 283 279 301 280 253
129 147 152 152 152 149 173 206 216 232 244 249 251 269 228 237 297 303 272 264 92 106 98 128 134 73 70 83 189 214 139 208 216 276 298 299 296 305 302 290 299 292 282 284 280 283 292 300 291 286 291 28 50 47
149 151 153 155 154 160 168 204 196 244 237 245 262 272 227 218 225 272 296 328 37 115 102 53 81 125 199 222 150 28 6 345 297 303 292 308 306 315 305 304 307 310 308 312 324 319 347 51 42 63 96 85 37 220
147 153 158 163 168 212 232 244 202 206 262 233 229 209 220 241 234 31 14 14 27 48 43 61 163 213 182 219 195 199 231 241 317 316 306 306 333 337 327 334 339 40 44 52 56 65 66 63 63 72 82 98 111 59
137 154 169 191 294 236 260 271 256 215 264 339 269 144 56 40 34 27 0 339 49 72 137 198 174 270 331 304 264 273 264 242 233 234 283 297 317 329 335 4 23 53 58 55 69 61 67 69 81 83 82 82 87 85
139 153 167 213 270 246 258 223 189 292 56 235 22 46 54 55 22 358 310 21 268 229 187 164 224 246 280 277 264 262 269 269 284 282 281 268 279 332 12 16 28 40 47 52 78 76 71 75 85 90 88 86 88 88
151 188 213 210 253 223 264 143 177 321 20 349 23 60 31 38 341 336 0 266 260 242 204 229 252 249 255 280 268 266 267 279 274 251 265 122 63 62 55 45 45 66 61 63 81 86 82 88 92 93 94 92 88 84
197 213 218 202 183 254 356 60 37 26 18 33 39 64 63 339 9 36 282 269 250 238 228 257 245 253 226 242 249 259 284 63 110 67 62 100 84 68 85 86 87 90 93 103 101 97 96 98 104 103 101 93 82 73
68 298 93 306 271 6 60 42 31 44 51 352 83 179 267 99 320 260 241 270 243 255 267 244 206 218 209 207 256 305 51 74 77 65 70 97 108 102 91 85 89 92 111 117 116 118 115 116 111 108 102 94 63 62
86 291 91 353 316 68 134 110 141 187 185 242 176 160 159 217 248 246 237 225 233 248 257 195 172 166 190 158 114 119 111 46 74 82 88 130 143 130 124 117 107 154 151 156 181 210 230 223 228 261 264 253 263 180
313 279 349 45 144 92 67 20 43 164 240 214 169 166 186 249 251 248 260 221 231 242 191 185 198 175 126 117 87 50 17 26 55 63 45 201 191 174 164 184 239 262 279 255 266 285 292 256 233 223 202 186 183 191
229 317 210 324 9 17 348 191 205 226 224 201 155 206 227 214 250 244 238 326 133 145 111 118 106 99 80 48 17 13 12 336 320 303 262 216 216 236 269 273 239 227 133 92 196 221 181 160 143 136 155 172 183 197
237 198 145 231 229 205 232 224 240 199 215 171 206 203 236 230 247 342 95 138 114 98 106 99 81 8 354 341 319 311 301 299 359 99 122 135 152 195 164 151 148 136 127 120 104 87 88 156 151 143 155 167 169 187
225 165 219 226 207 237 233 195 257 322 150 176 154 128 230 288 109 143 134 164 93 52 25 349 328 329 320 316 317 317 301 246 191 192 178 191 205 209 212 219 226 215 186 176 153 147 145 157 176 174 171 173 170 177
137 172 235 232 193 174 310 299 258 163 146 38 356 64 62 0 6 296 247 243 258 275 286 294 300 303 308 287 250 246 271 233 215 207 207 190 195 205 216 231 235 240 249 255 272 237 196 208 283 214 190 172 174 175
167 214 237 44 37 344 349 32 73 68 75 81 18 42 33 43 346 271 220 225 234 247 255 261 271 285 312 279 203 189 165 143 152 164 168 152 143 146 151 148 159 157 163 199 237 213 176 139 117 167 163 162 171 187
100 112 114 106 42 347 337 48 52 56 7 338 268 191 206 198 235 248 217 215 224 236 250 262 266 249 228 169 160 153 144 133 126 125 127 133 138 138 137 136 138 122 120 135 143 153 152 146 141 147 153 159 165 180
Height
840 841 843 844 844 844 843 843 841 839 837 835 832 830 828 825 822 819 817 816 817 817 806 798 795 795 796 797 801 790 783 779 781 792 794 799 797 792 789 783 781 790 806 812 819 817 813 777 771 777 784 776 778 781
836 838 839 840 841 841 841 841 840 838 837 835 833 831 828 826 823 820 817 817 814 814 805 797 792 790 793 791 794 794 793 794 791 793 799 800 798 801 803 802 786 794 791 801 803 803 788 785 781 773 773 774 775 776
832 834 836 837 838 838 839 839 838 837 836 834 832 831 829 827 824 823 819 816 814 813 804 796 788 786 785 787 789 796 794 790 788 790 797 800 798 801 807 803 791 784 783 797 796 793 790 788 779 776 773 773 770 772
827 829 831 833 834 835 836 836 836 835 834 833 831 829 827 826 824 822 820 819 818 818 818 799 788 785 785 786 786 786 786 787 788 789 795 799 799 795 803 800 799 791 787 796 799 794 794 789 785 781 777 774 772 775
823 825 826 829 830 831 833 833 834 833 832 831 830 828 826 825 822 820 818 819 819 821 820 808 790 785 784 785 785 785 786 790 793 795 799 800 799 797 799 800 798 791 788 796 800 791 791 788 784 781 778 777 778 780
818 820 821 825 826 828 830 831 831 831 830 829 828 826 825 823 821 819 819 820 819 818 819 815 794 787 785 785 785 787 788 792 797 799 800 798 794 798 804 806 789 786 785 784 788 786 788 785 784 782 780 778 779 782
813 815 817 821 823 825 827 828 829 829 828 827 826 824 824 823 822 822 821 819 818 818 818 816 805 788 786 786 788 790 791 794 796 802 801 799 796 797 807 806 787 784 786 782 782 784 790 788 788 781 779 781 781 782
808 811 814 817 820 822 824 826 827 827 826 826 824 822 821 820 819 818 816 816 816 817 817 819 807 795 788 793 795 792 796 797 796 798 801 800 800 801 804 794 787 782 784 784 783 781 784 786 785 784 784 784 785 786
805 808 811 814 817 820 822 824 825 826 825 824 822 819 818 818 818 817 816 816 816 819 818 818 812 804 792 796 796 796 797 802 800 799 801 798 806 804 795 787 783 783 784 785 785 785 787 788 789 788 787 788 788 788
801 805 808 812 815 817 820 822 824 824 824 823 821 820 820 818 818 818 817 817 816 815 817 816 809 802 796 800 799 802 803 804 803 798 796 800 802 795 791 787 784 781 780 783 786 790 790 791 791 790 790 790 790 789
796 800 805 809 812 815 818 820 823 823 823 822 822 820 818 817 817 817 819 819 816 813 812 806 803 798 795 799 801 802 803 806 803 799 797 803 806 799 794 791 786 783 783 785 787 789 789 789 790 789 791 790 788 787
790 795 801 805 810 813 816 820 822 824 824 824 825 822 819 818 821 819 819 814 812 804 798 797 795 796 794 795 799 802 800 806 802 799 797 804 806 801 798 794 792 790 791 792 792 793 794 792 791 791 790 789 787 786
786 792 798 803 808 812 815 818 821 823 823 823 823 823 822 823 831 818 811 809 806 793 789 789 791 791 795 794 802 802 801 806 799 800 801 805 804 803 800 797 794 794 794 795 795 795 795 794 792 790 790 789 787 784
784 790 795 801 806 811 815 818 822 823 823 823 820 829 823 824 817 811 807 802 794 791 789 789 791 791 796 796 801 797 800 799 801 803 801 803 803 803 802 799 797 798 796 796 795 792 791 791 790 789 788 787 785 783
784 789 795 801 806 811 815 819 821 823 822 821 817 816 814 806 803 799 798 796 792 790 791 791 792 794 797 794 800 799 797 797 799 800 801 802 802 803 801 797 796 796 795 793 791 790 788 787 786 785 784 784 782 780
785 791 796 800 806 812 816 819 821 822 821 820 818 812 803 801 798 797 794 793 790 789 790 790 790 795 794 798 796 795 792 798 803 803 804 804 803 801 799 798 796 794 792 789 787 786 784 782 781 779 778 777 776 775
788 789 795 802 808 813 817 819 820 821 819 813 810 805 804 802 798 796 793 790 788 790 793 792 791 790 798 797 796 801 800 801 803 802 802 801 799 798 796 794 792 789 787 785 783 781 780 778 777 775 774 772 772 772
789 793 798 805 809 814 818 818 819 817 814 809 807 802 800 798 795 793 792 790 790 792 793 791 797 793 797 796 801 802 803 802 801 800 800 798 796 794 793 790 788 786 783 780 778 777 776 775 773 773 772 772 771 771
792 797 803 807 811 813 815 817 817 814 808 804 801 798 795 795 794 794 792 789 788 789 792 797 797 804 804 805 804 802 800 801 801 800 799 796 794 792 789 786 783 781 779 777 775 775 774 773 773 772 773 774 774 773
799 803 807 810 813 813 812 811 809 808 805 802 799 798 796 795 795 795 794 793 793 795 797 800 803 804 804 803 802 802 802 801 801 800 798 794 792 790 787 784 782 781 779 778 778 777 776 777 777 776 775 775 775 775
805 809 813 814 814 812 811 807 805 803 800 800 798 796 795 796 798 800 802 799 799 804 803 803 803 802 801 801 800 800 799 799 799 799 796 794 791 790 788 787 785 783 782 782 782 782 781 781 780 779 779 779 778 777
807 812 815 816 814 810 808 803 803 800 802 800 799 797 801 802 807 808 807 805 805 803 803 803 803 802 802 800 799 799 798 797 796 795 793 792 791 790 789 789 788 787 785 785 786 785 785 785 784 783 783 783 783 781
811 812 812 812 812 809 805 800 802 801 800 800 803 803 809 811 810 809 810 808 805 801 801 801 800 800 800 799 798 797 796 795 794 793 792 792 792 791 791 790 790 790 789 789 789 789 790 791 790 789 789 789 789 788
811 810 808 808 809 809 801 802 804 807 806 806 806 807 809 811 813 813 812 810 802 799 799 798 797 798 798 797 796 795 794 792 792 794 793 793 793 794 793 793 793 794 794 794 794 795 795 796 797 796 795 794 794 793
813 811 811 817 806 802 801 808 812 814 813 812 808 813 812 814 810 812 811 803 799 797 796 795 796 796 796 795 795 795 794 795 796 795 795 795 796 797 797 798 798 799 799 799 800 800 801 801 801 801 801 801 801 800
820 808 810 806 810 806 811 811 817 814 812 809 809 812 811 810 809 807 802 797 796 795 793 794 795 795 795 796 797 797 798 798 798 798 798 799 799 799 801 802 802 803 802 802 802 803 803 804 805 803 801 802 803 804
816 808 807 809 809 810 813 813 810 809 807 805 806 808 809 807 804 800 795 793 793 792 793 793 793 795 796 798 799 800 800 800 800 801 801 801 801 802 802 803 803 802 801 801 801 801 800 801 800 800 800 801 802 804
812 811 807 810 811 811 808 808 807 805 803 802 804 803 800 799 797 794 793 791 791 792 792 793 794 796 798 799 800 800 800 800 800 799 799 800 802 802 802 801 801 801 800 800 800 800 801 802 801 801 801 802 804 805
811 809 811 809 808 809 807 803 798 797 796 796 797 797 796 794 793 792 792 791 792 793 795 796 798 798 799 799 800 799 799 799 799 801 801 803 803 803 802 803 803 803 802 802 802 801 800 800 802 802 803 803 804 805
806 807 807 803 803 801 797 797 794 792 792 792 792 794 793 792 793 794 794 794 795 796 797 797 798 798 798 797 797 796 796 795 797 799 802 802 801 802 803 803 804 804 804 804 803 804 804 805 805 805 805 805 805 806
800 803 802 797 794 794 794 793 791 791 791 792 790 792 793 794 793 793 794 794 795 796 797 797 796 796 795 794 795 795 794 792 793 795 798 799 800 801 802 802 803 804 804 804 804 804 804 805 804 804 804 804 804 805
797 796 793 793 795 795 793 793 793 793 793 793 794 795 796 797 797 793 791 792 793 794 794 794 793 791 792 790 793 795 795 793 792 794 797 799 800 801 800 800 801 802 803 802 802 803 804 803 803 804 805 805 806 806
794 794 795 797 797 798 797 798 798 798 798 798 798 797 797 798 797 787 786 786 786 787 788 789 789 790 791 792 793 795 798 798 799 800 800 801 802 802 802 802 802 802 802 802 803 803 804 804 804 805 805 806 806 806